Weather History for CYXE - March, 2013

Change the Weather History Date:

Friday, March 1, 2013

  Actual Average Record
Temperature  
Mean Temperature 24 °F -  
Max Temperature 30 °F 30 °F 39 °F (2008)
Min Temperature 19 °F 11 °F -34 °F (2014)
Degree Days  
Heating Degree Days 40    
Moisture  
Dew Point 20 °F    
Average Humidity 87    
Maximum Humidity 93    
Minimum Humidity 69    
Precipitation  
Precipitation 0.00 in 0.02 in - ()
Sea Level Pressure  
Sea Level Pressure 30.20 in    
Wind  
Wind Speed 9 mph ()    
Max Wind Speed 17 mph    
Max Gust Speed 17 mph    
Visibility 10.4 miles    
Events      
Averages and records for this station are not official NWS values.
T = Trace of Precipitation, MM = Missing Value Source: Averaged Metar Reports

Daily Weather History Graph

Daily Weather History Graph

Search for Another Location

Airport or City:

Trip Planner

Search our weather history database for the weather conditions in past years. The results will help you decide how hot, cold, wet, or windy it might be!

Date:

Astronomy

Mar. 01, 2013 Rise Set
Actual Time 7:51 AM CST 6:46 PM CST
Civil Twilight 7:17 AM CST 7:21 PM CST
Nautical Twilight 6:38 AM CST 8:00 PM CST
Astronomical Twilight 5:59 AM CST 8:39 PM CST
Moon No Moon Rise 9:03 AM CST (3/1)
Length of Visible Light 12h 03m
Length of Day
10h 55m
Waning Gibbous, 83% of the Moon is Illuminated
Mar 1
Waning Gibbous
Mar 4
Last Quarter
Mar 11
New
Mar 19
First Quarter
Mar 27
Full

Hourly Weather History & Observations

Time (CST) Temp. Windchill Dew Point Humidity Pressure Visibility Wind Dir Wind Speed Gust Speed Precip Events Conditions
12:00 AM 21.2 °F 10.9 °F 19.4 °F 93% 30.33 in 8.0 mi South 9.2 mph - N/A   Overcast
12:35 AM 21.2 °F 10.9 °F 19.4 °F 93% 30.32 in 2.0 mi South 9.2 mph - N/A   Overcast
4:00 AM 21.2 °F 10.1 °F 19.4 °F 93% 30.30 in 2.0 mi South 10.4 mph - N/A   Overcast
5:00 AM 19.4 °F 7.9 °F 17.6 °F 93% 30.31 in 4.0 mi South 10.4 mph - N/A   Overcast
6:18 AM 19.4 °F 8.6 °F 17.6 °F 93% 30.28 in 2.0 mi SE 9.2 mph - N/A   Overcast
7:00 AM 19.4 °F 7.2 °F 17.6 °F 93% 30.27 in 4.0 mi SE 11.5 mph - N/A   Overcast
7:26 AM 19.4 °F 7.9 °F 17.6 °F 93% 30.26 in 6.0 mi SE 10.4 mph - N/A   Overcast
8:00 AM 19.4 °F 7.9 °F 17.6 °F 93% 30.25 in 6.0 mi SE 10.4 mph - N/A   Mostly Cloudy
8:12 AM 19.4 °F 7.9 °F 17.6 °F 93% 30.25 in 6.0 mi SE 10.4 mph - N/A   Overcast
9:00 AM 19.4 °F 6.6 °F 17.6 °F 93% 30.23 in 6.0 mi SE 12.7 mph - N/A   Overcast
10:00 AM 21.2 °F 8.3 °F 19.4 °F 93% 30.22 in 8.0 mi SSE 13.8 mph - N/A   Overcast
11:00 AM 23.0 °F 9.6 °F 21.2 °F 93% 30.19 in 15.0 mi SE 16.1 mph - N/A   Overcast
12:00 PM 26.6 °F 15.2 °F 21.2 °F 80% 30.17 in 15.0 mi SSE 13.8 mph - N/A   Overcast
1:00 PM 28.4 °F 17.0 °F 21.2 °F 74% 30.16 in 15.0 mi South 15.0 mph - N/A   Mostly Cloudy
2:00 PM 28.4 °F 16.2 °F 21.2 °F 74% 30.14 in 15.0 mi South 17.3 mph - N/A   Mostly Cloudy
3:00 PM 30.2 °F 21.9 °F 21.2 °F 69% 30.14 in 15.0 mi South 9.2 mph 17.3 mph N/A   Overcast
4:00 PM 30.2 °F 20.2 °F 23.0 °F 75% 30.11 in 15.0 mi South 12.7 mph - N/A   Mostly Cloudy
5:00 PM 30.2 °F 21.3 °F 23.0 °F 75% 30.13 in 15.0 mi SSW 10.4 mph - N/A   Mostly Cloudy
6:00 PM 26.6 °F 21.2 °F 21.2 °F 80% 30.14 in 15.0 mi SSW 4.6 mph - N/A   Mostly Cloudy
7:00 PM 24.8 °F 20.5 °F 21.2 °F 86% 30.13 in 15.0 mi South 3.5 mph - N/A   Overcast
8:00 PM 23.0 °F 18.4 °F 21.2 °F 93% 30.14 in 15.0 mi West 3.5 mph - N/A   Overcast
9:00 PM 24.8 °F 20.5 °F 21.2 °F 86% 30.13 in 15.0 mi SW 3.5 mph - N/A   Overcast
10:00 PM 24.8 °F 17.9 °F 21.2 °F 86% 30.14 in 15.0 mi West 5.8 mph - N/A   Overcast
11:00 PM 23.0 °F 15.8 °F 21.2 °F 93% 30.16 in 15.0 mi WSW 5.8 mph - N/A   Overcast